CW1187 Weather Reports


Display with metric or nautical units.
time (UTC)temp
F
wind
direction
speed
MPH
gust
MPH
rain 1hr
in
rain 24hr
in
rain mn
in
humidity
%
barometer
mb
20260502164021 50 302 3.0 10.0 0.00 0.00 0.00 43 1018.7
20260502163520 50 275 2.0 11.0 0.00 0.00 0.00 45 1018.7
20260502163041 50 331 4.0 11.0 0.00 0.00 0.00 48 1018.7
20260502162524 50 360 6.0 10.0 0.00 0.00 0.00 43 1018.7
20260502162021 50 321 3.0 10.0 0.00 0.00 0.00 53 1018.7
20260502161538 50 331 4.0 10.0 0.00 0.00 0.00 47 1018.7
20260502161021 49 345 3.0 11.0 0.00 0.00 0.00 45 1018.7
20260502160522 49 328 3.0 11.0 0.00 0.00 0.00 46 1018.8
20260502152020 48 330 3.0 10.0 0.00 0.00 0.00 49 1019.0
20260502151540 47 355 1.0 10.0 0.00 0.00 0.00 45 1018.8
20260502151024 47 329 3.0 9.0 0.00 0.00 0.00 50 1018.9
20260502150518 47 288 3.0 9.0 0.00 0.00 0.00 54 1018.9
20260502130521 41 350 0.0 4.0 0.00 0.01 0.00 63 1018.7
20260502123541 40 0 1.0 3.0 0.00 0.01 0.00 70 1018.6
20260502123039 39 0 0.0 3.0 0.00 0.01 0.00 71 1018.4
20260502122520 39 13 1.0 4.0 0.00 0.01 0.00 68 1018.2
20260502122020 39 5 1.0 4.0 0.00 0.01 0.00 70 1018.2
20260502121545 39 349 0.0 2.0 0.00 0.01 0.00 72 1018.2
20260502121020 39 0 0.0 2.0 0.00 0.01 0.00 71 1018.2
20260502120517 39 346 0.0 3.0 0.00 0.01 0.00 72 1018.2
20260502115524 40 345 0.0 5.0 0.00 0.01 0.00 71 1018.0
20260502115021 40 355 2.0 6.0 0.00 0.01 0.00 72 1018.0
20260502114536 40 0 1.0 6.0 0.00 0.01 0.00 72 1017.9
20260502114021 39 338 1.0 5.0 0.00 0.01 0.00 74 1017.7
20260502113521 39 13 1.0 3.0 0.00 0.01 0.00 74 1017.5
20260502113039 38 13 1.0 2.0 0.00 0.01 0.00 76 1017.5
20260502112520 38 0 0.0 3.0 0.00 0.01 0.00 77 1017.7
20260502112018 38 14 0.0 3.0 0.00 0.01 0.00 77 1017.6
20260502111539 38 14 1.0 3.0 0.00 0.01 0.00 78 1017.6
20260502111019 38 345 0.0 3.0 0.00 0.01 0.00 78 1017.5
20260502110519 37 0 0.0 3.0 0.00 0.01 0.00 79 1017.4
20260502110038 37 0 0.0 2.0 0.00 0.01 0.00 80 1017.4
20260502105521 37 345 0.0 3.0 0.00 0.01 0.00 80 1017.4
20260502105021 37 345 1.0 3.0 0.00 0.01 0.00 80 1017.4
20260502104546 37 344 1.0 3.0 0.00 0.01 0.00 80 1017.4
20260502104018 37 0 0.0 0.0 0.00 0.01 0.00 80 1017.5
20260502103523 37 0 0.0 0.0 0.00 0.01 0.00 81 1017.6
20260502103037 37 0 0.0 0.0 0.00 0.01 0.00 81 1017.7
20260502102521 37 0 0.0 0.0 0.00 0.01 0.00 80 1017.6
20260502102019 37 0 0.0 0.0 0.00 0.01 0.00 80 1017.7
20260502101539 37 0 0.0 0.0 0.00 0.01 0.00 79 1017.6
20260502101023 37 0 0.0 0.0 0.00 0.01 0.00 79 1017.6
20260502100520 37 0 0.0 0.0 0.00 0.01 0.00 78 1017.6
20260502091533 39 0 0.0 0.0 0.00 0.01 0.00 75 1017.2
20260502091020 39 0 0.0 0.0 0.00 0.01 0.00 75 1017.2
20260502090520 39 0 0.0 0.0 0.00 0.01 0.00 75 1017.2
20260502071020 40 0 0.0 0.0 0.00 0.01 0.00 70 1017.3
20260502070522 40 0 0.0 0.0 0.00 0.01 0.00 71 1017.4
20260502070038 41 0 0.0 0.0 0.00 0.01 0.00 71 1017.4
20260502065521 41 0 0.0 1.0 0.00 0.01 0.00 70 1017.4
20260502065020 41 0 0.0 1.0 0.00 0.01 0.00 71 1017.5
20260502064537 41 0 0.0 1.0 0.00 0.01 0.00 71 1017.4
20260502064020 41 342 0.0 1.0 0.00 0.01 0.00 72 1017.5
20260502063521 41 0 0.0 1.0 0.00 0.01 0.00 71 1017.6
20260502063040 41 0 0.0 1.0 0.00 0.01 0.00 71 1017.6
20260502062524 41 0 0.0 1.0 0.00 0.01 0.00 71 1017.7
20260502062024 41 0 0.0 1.0 0.00 0.01 0.00 71 1017.7
20260502061540 41 0 0.0 1.0 0.00 0.01 0.00 71 1017.7
20260502061020 41 0 0.0 2.0 0.00 0.01 0.00 71 1017.6
20260502060520 42 0 0.0 2.0 0.00 0.01 0.00 71 1017.6
20260502060039 42 342 0.0 1.0 0.00 0.01 0.00 71 1017.7
20260502055523 42 0 0.0 2.0 0.00 0.01 0.00 72 1017.6
20260502055021 42 0 0.0 2.0 0.00 0.01 0.00 73 1017.6
20260502054540 42 342 0.0 2.0 0.00 0.01 0.00 73 1017.6
20260502054021 42 342 0.0 2.0 0.00 0.01 0.00 73 1017.5
20260502053520 42 342 0.0 2.0 0.00 0.01 0.00 72 1017.5
20260502053035 42 342 0.0 2.0 0.00 0.01 0.00 73 1017.5
20260502052520 42 342 1.0 2.0 0.00 0.01 0.00 72 1017.6
20260502052020 42 339 1.0 2.0 0.00 0.01 0.00 72 1017.6
20260502051549 42 0 0.0 2.0 0.00 0.01 0.00 73 1017.7
20260502051020 42 0 0.0 2.0 0.00 0.01 0.00 75 1017.7
20260502050521 42 338 0.0 2.0 0.00 0.01 0.00 77 1017.8
20260502050039 41 0 0.0 2.0 0.00 0.01 0.00 78 1017.8
20260502045521 41 337 0.0 1.0 0.00 0.01 0.00 79 1017.9
20260502045021 40 337 0.0 1.0 0.00 0.01 0.00 82 1017.9
20260502044539 40 0 0.0 1.0 0.00 0.01 0.00 84 1017.9
20260502044020 40 0 0.0 1.0 0.00 0.01 0.00 84 1017.9
20260502043520 40 0 0.0 1.0 0.00 0.01 0.00 84 1017.8
20260502043043 40 0 0.0 1.0 0.00 0.01 0.00 84 1017.7
20260502042521 41 0 0.0 0.0 0.00 0.01 0.00 83 1017.7
20260502042020 41 0 0.0 0.0 0.00 0.01 0.00 83 1017.7
20260502041540 41 0 0.0 0.0 0.00 0.01 0.00 83 1017.8
20260502041021 41 0 0.0 1.0 0.00 0.01 0.00 83 1017.7
20260502040521 41 0 0.0 1.0 0.00 0.01 0.00 83 1017.6
20260502040034 41 0 0.0 0.0 0.00 0.01 0.00 82 1017.7
20260502035520 41 0 0.0 1.0 0.00 0.01 0.01 81 1017.7
20260502035021 41 0 0.0 1.0 0.00 0.01 0.01 81 1017.7
20260502034542 42 0 0.0 1.0 0.00 0.01 0.01 81 1017.6
20260502034020 42 0 0.0 1.0 0.00 0.01 0.01 81 1017.6
20260502033520 42 0 0.0 1.0 0.00 0.01 0.01 81 1017.7
20260502033049 42 337 0.0 1.0 0.00 0.01 0.01 81 1017.7
20260502032520 42 0 0.0 0.0 0.00 0.01 0.01 80 1017.6
20260502032020 42 0 0.0 0.0 0.00 0.01 0.01 80 1017.6
20260502031556 42 0 0.0 0.0 0.00 0.01 0.01 80 1017.6
20260502031020 42 0 0.0 0.0 0.00 0.01 0.01 79 1017.6
20260502030521 43 0 0.0 0.0 0.00 0.01 0.01 78 1017.7
20260502030037 43 0 0.0 0.0 0.00 0.01 0.01 78 1017.7
20260502025520 43 0 0.0 0.0 0.00 0.01 0.01 78 1017.7
20260502025020 43 0 0.0 0.0 0.00 0.01 0.01 78 1017.7
20260502024535 43 0 0.0 0.0 0.00 0.01 0.01 78 1017.7
20260502024021 43 0 0.0 0.0 0.00 0.01 0.01 78 1017.8
20260502023523 43 0 0.0 0.0 0.00 0.01 0.01 78 1017.9
20260502023039 43 0 0.0 0.0 0.00 0.01 0.01 77 1017.7
20260502022519 43 0 0.0 0.0 0.00 0.01 0.01 77 1017.7
20260502022020 44 0 0.0 0.0 0.00 0.01 0.01 77 1017.7
20260502021540 44 0 0.0 0.0 0.00 0.01 0.01 77 1017.7
20260502021021 44 0 0.0 0.0 0.00 0.01 0.01 76 1017.5
20260502020520 44 0 0.0 0.0 0.00 0.01 0.01 76 1017.4
20260502020041 44 0 0.0 1.0 0.00 0.01 0.01 76 1017.3
20260502015521 44 0 0.0 1.0 0.00 0.01 0.01 76 1017.2
20260502015021 45 0 0.0 0.0 0.00 0.01 0.01 74 1017.1
20260502014539 45 0 0.0 0.0 0.00 0.01 0.01 74 1016.8
20260502014020 45 0 0.0 0.0 0.00 0.01 0.01 73 1016.9
20260502013521 46 0 0.0 0.0 0.00 0.01 0.01 72 1016.8
20260502013035 46 0 0.0 0.0 0.00 0.01 0.01 72 1016.8
20260502012520 46 0 0.0 3.0 0.00 0.01 0.01 72 1016.7
20260502012021 46 0 0.0 3.0 0.00 0.01 0.01 71 1016.5
20260502011542 46 338 1.0 3.0 0.00 0.01 0.01 71 1016.4
20260502011020 46 338 1.0 3.0 0.00 0.01 0.01 70 1016.3
20260502010519 46 338 1.0 3.0 0.00 0.01 0.01 70 1016.3
20260502010033 47 335 1.0 4.0 0.00 0.01 0.01 70 1016.2
20260502005521 47 333 1.0 4.0 0.00 0.01 0.01 70 1016.2
20260502005021 47 329 2.0 4.0 0.00 0.01 0.01 69 1016.0
20260502004539 47 349 1.0 4.0 0.00 0.01 0.01 68 1016.0
20260502004021 47 352 2.0 5.0 0.00 0.01 0.01 68 1015.9
20260502003520 47 344 2.0 6.0 0.00 0.01 0.01 67 1015.8
20260502003039 47 343 2.0 9.0 0.00 0.01 0.01 67 1015.7
20260502002520 48 325 2.0 10.0 0.00 0.01 0.01 67 1015.7
20260502002025 48 343 4.0 10.0 0.00 0.01 0.01 67 1015.6
20260502001540 48 352 4.0 10.0 0.00 0.01 0.01 66 1015.6
20260502001021 49 355 4.0 10.0 0.00 0.01 0.01 65 1015.5
20260502000521 49 337 2.0 9.0 0.00 0.01 0.01 64 1015.5
20260502000035 49 336 3.0 7.0 0.00 0.01 0.01 63 1015.6
20260501235518 50 330 2.0 8.0 0.00 0.01 0.01 63 1015.6
20260501235022 50 326 3.0 8.0 0.00 0.01 0.01 63 1015.7
20260501234547 50 315 2.0 11.0 0.00 0.01 0.01 63 1015.6
20260501234018 50 322 6.0 15.0 0.00 0.01 0.01 63 1015.7
20260501233527 50 352 5.0 15.0 0.00 0.01 0.01 62 1015.6
20260501233039 50 355 7.0 14.0 0.00 0.01 0.01 61 1015.6
20260501232521 51 323 5.0 11.0 0.00 0.01 0.01 59 1015.6
20260501232019 51 308 5.0 11.0 0.00 0.01 0.01 59 1015.6
20260501231549 51 326 5.0 13.0 0.00 0.01 0.01 59 1015.6
20260501231018 51 305 6.0 14.0 0.00 0.01 0.01 58 1015.5
20260501230520 52 344 6.0 14.0 0.00 0.01 0.01 58 1015.5
20260501230039 52 325 6.0 11.0 0.00 0.01 0.01 56 1015.4
20260501225522 53 344 5.0 11.0 0.00 0.01 0.01 55 1015.4
20260501225019 53 341 2.0 4.0 0.00 0.01 0.01 57 1015.3
20260501224539 53 317 2.0 9.0 0.00 0.01 0.01 57 1015.4
20260501224018 53 312 2.0 9.0 0.00 0.01 0.01 56 1015.4
20260501223521 53 291 3.0 10.0 0.00 0.01 0.01 55 1015.3
20260501223033 53 321 3.0 10.0 0.00 0.01 0.01 55 1015.4
20260501222519 53 328 3.0 10.0 0.00 0.01 0.01 55 1015.4
20260501222020 53 317 3.0 11.0 0.00 0.01 0.01 55 1015.4
20260501221533 53 327 4.0 11.0 0.00 0.01 0.01 55 1015.4
20260501221020 53 325 4.0 10.0 0.00 0.01 0.01 56 1015.4
20260501220521 53 325 5.0 11.0 0.00 0.01 0.01 58 1015.3
20260501220040 54 15 3.0 11.0 0.00 0.01 0.01 55 1015.3
20260501215519 55 317 4.0 11.0 0.00 0.01 0.01 51 1015.4
20260501215019 55 322 2.0 8.0 0.00 0.01 0.01 56 1015.4
20260501214551 55 322 2.0 10.0 0.00 0.01 0.01 52 1015.4
20260501214018 55 302 4.0 11.0 0.00 0.01 0.01 55 1015.5
20260501213519 55 290 3.0 11.0 0.00 0.01 0.01 55 1015.6
20260501213045 55 340 4.0 11.0 0.00 0.01 0.01 57 1015.5
20260501212518 55 311 2.0 10.0 0.00 0.01 0.01 56 1015.6
20260501212019 54 317 4.0 10.0 0.00 0.01 0.01 55 1015.6
20260501211536 54 317 3.0 10.0 0.00 0.01 0.01 54 1015.6
20260501211017 54 334 2.0 10.0 0.00 0.01 0.01 57 1015.5
20260501210518 54 331 3.0 10.0 0.00 0.01 0.01 55 1015.5
20260501210040 53 319 4.0 11.0 0.00 0.01 0.01 58 1015.5
20260501205519 54 316 4.0 11.0 0.00 0.01 0.01 60 1015.5
20260501205018 54 5 3.0 14.0 0.00 0.01 0.01 58 1015.5
20260501204543 53 303 4.0 14.0 0.00 0.01 0.01 55 1015.4
20260501204018 54 11 7.0 14.0 0.00 0.01 0.01 55 1015.5
20260501203520 54 350 3.0 10.0 0.00 0.01 0.01 55 1015.6
20260501203039 54 319 2.0 11.0 0.00 0.01 0.01 57 1015.6
20260501202520 54 331 4.0 11.0 0.00 0.01 0.01 52 1015.8
20260501202020 54 319 6.0 11.0 0.00 0.01 0.01 63 1015.8
20260501201545 54 330 3.0 9.0 0.00 0.01 0.01 56 1015.8
20260501201022 54 286 3.0 10.0 0.00 0.01 0.01 56 1015.8
20260501200523 54 285 4.0 14.0 0.00 0.01 0.01 55 1015.9
20260501200035 54 311 5.0 14.0 0.00 0.01 0.01 58 1015.9
20260501195524 54 313 3.0 7.0 0.00 0.01 0.01 56 1015.9
20260501195021 54 277 2.0 7.0 0.00 0.01 0.01 61 1015.7
20260501194537 53 298 2.0 10.0 0.00 0.01 0.01 60 1015.8
20260501194020 53 320 2.0 10.0 0.00 0.01 0.01 59 1015.8
20260501193520 53 336 4.0 11.0 0.00 0.01 0.01 58 1015.8
20260501193040 53 11 5.0 11.0 0.00 0.01 0.01 58 1015.7
20260501192520 52 317 4.0 10.0 0.00 0.01 0.01 63 1015.8
20260501192020 52 340 4.0 12.0 0.00 0.01 0.01 58 1015.8
20260501191539 52 323 3.0 12.0 0.00 0.01 0.01 65 1015.7
20260501191021 52 320 4.0 12.0 0.00 0.01 0.01 65 1015.6
20260501190522 51 315 4.0 11.0 0.00 0.01 0.01 62 1015.7
20260501190039 51 319 4.0 11.0 0.00 0.01 0.01 64 1015.7
20260501185520 50 319 6.0 11.0 0.00 0.01 0.01 61 1015.6
20260501185020 51 5 4.0 14.0 0.00 0.01 0.01 64 1015.6
20260501184539 52 355 6.0 14.0 0.00 0.01 0.01 62 1015.7
20260501184020 52 311 4.0 10.0 0.00 0.01 0.01 66 1015.6
20260501183521 52 360 4.0 9.0 0.00 0.01 0.01 64 1015.5
20260501183039 51 286 2.0 11.0 0.00 0.01 0.01 67 1015.5
20260501182520 51 323 3.0 11.0 0.00 0.01 0.01 67 1015.4
20260501182021 50 32 5.0 12.0 0.00 0.01 0.01 65 1015.4
20260501181541 50 336 6.0 12.0 0.00 0.01 0.01 66 1015.4
20260501181020 50 336 6.0 17.0 0.00 0.01 0.01 65 1015.3
20260501180521 50 347 7.0 17.0 0.00 0.01 0.01 70 1015.4
20260501180042 51 309 4.0 11.0 0.00 0.01 0.01 66 1015.4
20260501175521 51 320 5.0 11.0 0.00 0.01 0.01 65 1015.4
20260501175021 51 309 3.0 9.0 0.00 0.01 0.01 68 1015.4
20260501174540 51 309 3.0 8.0 0.00 0.01 0.01 67 1015.4
20260501174020 51 339 3.0 8.0 0.00 0.01 0.01 67 1015.3
20260501173518 52 303 3.0 8.0 0.00 0.01 0.01 66 1015.3
20260501173037 52 319 3.0 11.0 0.00 0.01 0.01 68 1015.4
20260501172519 51 310 4.0 11.0 0.00 0.01 0.01 69 1015.3
20260501172018 51 325 3.0 10.0 0.00 0.01 0.01 70 1015.2
20260501171548 50 299 3.0 10.0 0.00 0.01 0.01 71 1015.2